Location: H�hengau
(49.5034°N, 11.8658°E)
Time: 04:43:03
(UTC+00:00)

Daily predictions for brighter satellites

Satellite Brightness Start Highest point End
(mag) Time Altitude Azimuth Time Altitude Azimuth Time Altitude Azimuth
CENTAUR R/B 4.3 01:48:26 22° ESE 01:48:45 22° ESE 01:53:41 10° ENE
USA 238 DEB 4.2 02:19:36 51° ESE 02:19:36 51° ESE 02:26:12 10° NE
USA 238 4.2 02:19:40 50° ESE 02:19:42 50° ESE 02:26:18 10° NE
NOSS 3-2 (A) 4.0 02:24:29 53° E 02:24:29 53° E 02:30:11 10° NE
CZ-2C R/B 4.3 02:22:00 10° NE 02:26:12 26° E 02:27:56 22° SE
Lacrosse 4 Rocket 4.0 02:31:40 17° E 02:31:40 17° E 02:33:54 10° ENE
IDEFIX/ARIANE 42P 3.9 02:32:55 10° NNE 02:35:46 33° NNE 02:35:46 33° NNE
USA 234 3.4 02:34:47 10° ENE 02:41:13 61° NNW 02:41:15 61° NNW
Cosmos 2279 Rocket 4.1 02:43:16 10° N 02:49:29 70° ENE 02:55:39 10° SSE
NOSS 3-3 (A) 4.3 02:49:53 70° WSW 02:50:15 71° SW 02:58:33 10° SSE
NOSS 3-3 (C) 4.3 02:50:06 70° WSW 02:50:21 71° SW 02:58:33 10° SSE
Cosmos 1656 3.9 02:49:55 56° N 02:50:55 67° ENE 02:56:36 10° SE
ADEOS Rocket 2.9 02:49:19 10° SSE 02:54:44 69° ENE 03:00:20 10° N
Cosmos 2344 3.5 02:56:53 56° SSW 02:58:45 85° SE 03:06:56 10° NE
Lacrosse 5 rocket 3.8 03:00:14 14° SE 03:00:33 14° SE 03:02:30 10° E
COSMOS 2406 4.5 02:59:32 15° SSE 03:03:42 38° ESE 03:08:54 10° NE
Cosmos 1697 Rocket 3.4 03:03:55 16° NNW 03:08:19 53° NE 03:13:50 10° SE
Cosmos 1536 Rocket 4.0 03:11:55 55° SE 03:12:32 62° E 03:16:58 10° NNE
NOSS 3-2 (C) 3.4 03:21:46 47° SSW 03:23:37 81° SE 03:30:14 10° NE
MSX 3.9 03:21:05 10° N 03:26:41 54° WNW 03:26:51 54° WNW
CZ-4B R/B 2.4 03:25:23 10° SE 03:28:43 47° ENE 03:30:17 27° NNE
Cosmos 44 Rocket 3.3 03:29:14 66° WSW 03:29:26 67° SW 03:34:35 10° SSE
Cosmos 1980 Rocket 3.2 03:24:40 10° NNW 03:30:03 44° NE 03:35:23 10° SE
ADEOS II 4.2 03:28:34 10° NNW 03:29:26 13° NNW 03:29:26 13° NNW
PSLV R/B 3.4 03:31:30 10° NNE 03:35:48 79° WNW 03:36:14 69° SW
ARIANE 5 R/B 4.1 03:33:58 10° N 03:36:09 20° NNW 03:36:09 20° NNW
CENTAUR R/B 2.5 03:35:39 37° SW 03:38:21 87° NW 03:45:39 10° NE
Cosmos 2360 4.4 03:35:04 10° NNW 03:40:47 72° ENE 03:46:28 10° SE
Intercosmos 24 4.4 03:37:07 10° N 03:41:12 55° ENE 03:44:42 10° SSE
ERS-2 2.3 03:44:31 10° S 03:47:31 55° SSW 03:47:31 55° SSW
KORONAS-FOTON 3.7 03:51:42 59° WSW 03:52:08 65° WNW 03:56:02 10° N
SAR-Lupe-4 3.8 03:50:56 10° SSE 03:54:29 69° ENE 03:58:04 10° N
Cosmos 967 Rocket 4.4 03:49:43 14° NW 03:55:12 90° NE 04:01:29 10° SE
Cosmos 2278 4.0 03:50:46 10° NNW 03:56:27 68° ENE 04:02:04 10° SE
ALOS 2.5 03:52:38 10° NNE 03:57:20 73° ESE 04:01:59 10° S
SL-14 R/B 4.0 03:53:54 10° S 03:57:48 56° E 04:01:46 10° NNE
CZ-3 R/B 4.4 03:43:26 13° SW 03:59:31 27° SSW 04:07:09 10° SE
Cosmos 2322 Rocket 4.2 03:55:33 10° NNW 04:00:10 25° NE 04:04:46 10° E
Nadezhda 4 Rocket 3.9 03:57:36 10° S 04:03:43 83° W 04:09:55 10° N
CZ-2C R/B 2.6 03:59:50 10° N 04:04:39 47° WNW 04:07:18 24° SW
Cosmos 1300 2.9 04:01:54 10° N 04:05:44 73° E 04:09:32 10° SSE
Cosmos 1726 Rocket 3.8 04:01:49 10° N 04:06:17 74° E 04:10:44 10° SSE
Abrixas rocket 2.0 04:06:51 57° SSW 04:06:52 57° S 04:09:39 10° ESE
ADEOS 3.5 04:02:03 10° NNE 04:07:19 89° WNW 04:12:33 10° SSW
ISS -2.3 04:07:09 21° SSW 04:08:51 34° SSE 04:11:55 10° E
PSLV R/B 4.5 04:04:52 10° SSE 04:09:00 61° ENE 04:13:12 10° N
GP-B 4.4 04:10:49 23° NW 04:10:49 23° NW 04:13:06 10° NNW
Lacrosse 4 Rocket 1.3 04:08:01 36° WSW 04:09:27 59° NW 04:13:29 10° NNE
PAYLOAD A 4.4 04:04:56 10° N 04:09:37 40° WNW 04:12:20 23° WSW
USA 238 DEB 4.0 04:07:03 27° W 04:10:36 50° NW 04:17:26 10° NE
Cosmos 1833 Rocket 2.7 04:04:58 10° SSW 04:10:38 89° ESE 04:16:20 10° NNE
USA 238 3.9 04:07:08 27° W 04:10:42 51° NW 04:17:31 10° NE
Cosmos 1689 Rocket 2.5 04:08:55 10° SSE 04:11:49 63° ENE 04:14:43 10° N
SAR-Lupe-1 3.9 04:08:33 10° SSE 04:12:07 81° WSW 04:15:43 10° NNW
USA 290 3.8 04:10:29 10° S 04:13:29 37° ESE 04:16:32 10° NE
Cosmos 1025 Rocket 4.1 04:14:22 26° WNW 04:14:22 26° WNW 04:17:41 10° NNW
NOSS 3-2 (A) 4.0 04:11:54 26° W 04:14:55 44° NNW 04:21:28 10° NE
Meteor 1-24 Rocket 4.0 04:10:23 10° S 04:15:58 74° E 04:21:49 10° NNE
Cosmos 1484 Rocket 2.6 04:12:09 10° N 04:16:02 70° WNW 04:19:49 10° SSW
Cosmos 1674 3.3 04:16:30 33° WNW 04:16:39 33° WNW 04:20:08 10° N
IDEFIX/ARIANE 42P 4.2 04:13:52 10° NNW 04:16:33 16° NW 04:16:33 16° NW
Cosmos 1269 Rocket 4.3 04:15:37 20° WSW 04:19:01 45° WNW 04:24:09 10° NNE
Cosmos 2228 3.0 04:15:02 10° NNW 04:19:21 63° W 04:23:40 10° S
Cosmos 2369 3.7 04:13:54 10° NW 04:19:29 59° WSW 04:25:01 10° S
Cosmos 1606 Rocket 3.5 04:16:52 10° NNW 04:21:17 64° W 04:25:43 10° S
CZ-4B R/B 3.5 04:19:00 10° NNE 04:22:57 59° ESE 04:27:03 10° S
USA 234 3.9 04:17:31 10° ENE 04:23:42 46° N 04:28:35 16° WNW
ATLAS 3B R/B 2.9 04:18:00 10° SSW 04:24:30 70° SE 04:31:09 10° NE
Cosmos 1626 2.1 04:22:06 10° SSW 04:25:44 56° WNW 04:29:23 10° N
METEOR-M 4.0 04:22:03 10° NNE 04:27:25 79° WNW 04:32:44 10° SSW
Cosmos 2082 Rocket 2.4 04:23:35 10° SSW 04:29:10 74° ESE 04:34:48 10° NNE
COSMO-SKYMED 1 2.5 04:25:42 10° S 04:30:01 75° WSW 04:34:24 10° NNW
SL-16 R/B 3.3 04:29:53 10° NNW 04:35:20 44° NE 04:40:44 10° SE
Lacrosse 5 rocket 1.1 04:35:55 14° SW 04:39:04 84° SE 04:42:54 10° ENE
Meteor 2-5 Rocket 3.8 04:33:45 10° SSW 04:39:23 61° WNW 04:45:10 10° N
Meteor 1-31 Rocket 2.9 04:36:11 10° N 04:40:02 52° WNW 04:43:51 10° SSW
ADEOS Rocket 3.9 04:37:05 10° SW 04:40:57 19° W 04:44:53 10° NW
CREW DRAGON DEMO-1 DEB 2.8 04:42:58 20° WNW 04:44:53 80° NNE 04:47:54 10° ESE
Meteor PRIRODA 3.6 04:41:49 10° NNE 04:45:28 89° WNW 04:49:07 10° SSW
Meteor 2-8 Rocket 4.5 04:39:34 10° N 04:45:47 87° W 04:51:57 10° S
Cosmos 1553 Rocket 4.2 04:40:21 10° N 04:46:31 78° E 04:52:36 10° SSE
deb Kosmos-1763 4.2 04:44:24 10° SW 04:47:54 49° WNW 04:51:25 10° NNE
COSMOS 2406 3.6 04:42:35 10° WSW 04:47:58 43° NW 04:53:23 10° NNE
Okean 1-7 Rocket 3.7 04:43:39 10° S 04:48:12 87° E 04:52:46 10° N
Cosmos 1428 Rocket 4.5 04:43:51 10° S 04:50:06 82° W 04:56:20 10° N
deb Chang Zheng 4 4.0 04:46:52 10° N 04:50:49 39° WNW 04:54:47 10° SW
CZ-4B R/B 4.3 04:46:50 10° N 04:50:53 43° WNW 04:54:46 10° SW
Cosmos 2058 Rocket 3.1 04:46:44 10° NNW 04:51:13 63° W 04:55:37 10° S
Cosmos 1697 Rocket 3.5 04:47:09 10° NW 04:52:01 30° WSW 04:56:50 10° SSW
Cosmos 1455 3.0 04:51:19 10° N 04:55:08 55° ENE 04:58:56 10° SSE
ARGOS Delta rocket 4.3 04:55:26 10° N 05:00:36 51° WNW 05:05:53 10° SW
CZ-4B R/B 3.2 04:59:21 10° WSW 05:01:14 14° W 05:03:05 10° WNW
Cosmos 2026 Rocket 4.0 04:54:57 10° SSW 05:01:17 67° WNW 05:07:40 10° N
ASTRO F (AKARI) 4.4 04:57:57 10° N 05:01:31 64° WNW 05:04:54 10° SSW
Cosmos 2360 Rocket 3.7 04:57:23 10° NNW 05:02:32 35° NE 05:07:38 10° ESE
FENGYUN 3A 4.2 04:59:24 10° N 05:04:20 36° WNW 05:09:13 10° SW
Cosmos 1892 Rocket 3.8 05:00:54 10° SSW 05:05:06 46° WNW 05:09:20 10° N
Cosmos 1400 Rocket 3.6 05:04:10 10° NNW 05:07:39 30° W 05:11:04 10° SSW
Cosmos 2084 3.9 05:05:02 10° SSW 05:09:20 68° SE 05:13:44 10° NE
H-2A R/B 3.0 05:05:48 10° NNE 05:10:14 69° ESE 05:14:31 10° S
Cosmos 1980 Rocket 2.8 05:08:53 10° NW 05:13:57 36° WSW 05:19:00 10° S
Cosmos 2344 4.4 05:07:15 10° W 05:14:14 38° NNW 05:22:33 10° NE
NOSS 3-2 (C) 4.3 05:09:41 10° W 05:15:14 35° NNW 05:21:37 10° NE
YAOGAN 6 3.3 05:12:25 10° NNE 05:16:07 62° E 05:19:45 10° S
Cosmos 2251 Rocket 3.8 05:14:13 10° SW 05:19:23 48° WNW 05:24:34 10° NNE
Meteor 2-15 4.4 05:14:14 10° NNW 05:20:19 73° W 05:26:21 10° S
